[[{"header":{"parameterUnit":"m.s-1","parameterCategory":1,"la1":30.2991,"la2":30.254,"lo1":-89.0895,"lo2":-89.0444,"dy":0.0017,"dx":0.0017,"nx":28,"ny":28,"refTime":"2025-03-04T09:00:00:Z","depth":0,"parameterNumber":2,"parameterNumberName":"U-component_of_WINDS"},"data":[0,0,0,0,0,0,0,0,0,0,0,0,0,0,0,0,0,0,0,0,0,0,0,0,0,0,0,0,0,0,0,0,0,0,0,0,0,0,0,0,0,0,0,0,0,0,0,0,0,0,0,0,0,0,0,0,0,0,5.2706,5.2707,0,5.2838,5.284,5.2841,5.2781,5.2778,5.2774,5.2771,5.2908,5.2914,5.2921,0,0,0,0,0,0,0,0,0,0,0,0,0,5.2404,5.241,5.2706,5.2708,5.2709,5.2838,5.284,5.2841,5.2782,5.2778,5.2774,5.277,5.2905,5.2913,5.2921,0,0,0,0,0,0,0,0,0,0,0,0,0,5.2536,5.2412,5.2706,5.2695,5.2695,5.2838,5.284,5.2842,5.2783,5.2778,5.2773,5.2768,5.2903,5.2913,5.2923,5.3083,0,0,5.2953,5.2958,0,0,0,0,0,0,0,0,5.2528,5.2547,5.2695,5.2696,5.2696,5.2788,5.2783,5.2923,5.2784,5.2749,5.2771,5.2766,5.2872,5.2884,5.292,5.309,5.3096,5.2954,5.296,5.2965,5.2967,0,0,0,0,0,0,0,5.2519,5.2541,5.2758,5.2697,5.2698,5.2684,5.2697,5.2809,5.2837,5.2752,5.2748,5.2764,5.2871,5.291,5.2923,5.3098,5.2954,5.2963,5.2969,5.2973,5.3409,5.3414,0,0,0,0,0,0,5.251,5.2534,5.2754,5.2762,5.2598,5.2694,5.2708,5.2764,5.2835,5.2842,5.2768,5.2761,5.2896,5.2911,5.2927,5.3122,5.2964,5.2974,5.298,5.3403,5.341,5.3416,0,0,0,0,0,0,5.2504,5.253,5.2749,5.2647,5.2674,5.2704,5.2767,5.2769,5.2808,5.2848,5.2853,5.2803,5.2892,5.2913,5.3046,5.3126,5.2978,5.2988,5.3397,5.3405,5.3413,5.3512,0,0,0,0,0,0,5.2495,5.2528,5.2589,5.2649,5.2679,5.2864,5.2771,5.2775,5.2825,5.2817,5.2882,5.2888,5.289,5.3031,5.3056,5.3137,5.2995,5.339,5.3401,5.341,5.3501,5.3522,5.354,0,0,0,0,0,5.2485,5.2611,5.2593,5.2619,5.2756,5.2869,5.2887,5.2887,5.2832,5.2894,5.292,5.2885,5.3113,5.3045,5.3072,5.3158,5.3385,5.3398,5.341,5.3493,5.3518,5.354,0,0,0,0,0,0,5.256,5.2619,5.2599,5.2748,5.2804,5.2859,5.2937,5.2913,5.2986,5.2975,5.2973,5.2988,5.3126,5.3155,5.3078,5.3319,5.3241,5.3259,5.3294,5.3319,5.3338,5.3328,5.3004,0,0,0,0,0,5.2594,5.2681,5.2728,5.2855,5.2884,5.2906,5.2955,5.2951,5.3009,5.3032,5.3068,5.3126,5.321,5.3266,5.3346,5.3505,5.352,5.3578,5.3597,5.3613,5.3629,5.3718,5.3745,5.3457,5.3457,5.3457,0,0,5.2666,5.2708,5.2763,5.2871,5.2914,5.3005,5.2926,5.3025,5.3093,5.3047,5.3175,5.3203,5.3268,5.3415,5.3482,5.3444,5.3712,5.3629,5.3641,5.3649,5.3733,5.3761,5.3785,5.3466,5.3464,5.3463,0,0,5.2842,5.2882,5.2994,5.3039,5.3105,5.3119,5.3146,5.3205,5.3222,5.335,5.3318,5.3399,5.3544,5.3592,5.3636,5.3833,5.3805,5.3859,5.3961,5.4047,5.407,5.409,5.4162,5.4187,5.3875,5.3875,5.3876,0,5.2922,5.3057,5.3054,5.3156,5.3206,5.3169,5.3283,5.3327,5.3416,5.3451,5.3407,5.359,5.3631,5.379,5.3839,5.3874,5.3906,5.3852,5.4067,5.4087,5.4106,5.4174,5.4201,5.3882,5.3881,5.388,5.388,0,5.3153,5.3248,5.333,5.3417,5.3476,5.3583,5.3598,5.3658,5.3648,5.3667,5.38,5.3848,5.3938,5.3975,5.3966,5.4134,5.4108,5.4066,5.3987,5.4139,5.4204,5.423,5.3891,5.3888,5.3887,5.3885,0,0,5.338,5.3466,5.3496,5.3536,5.3607,5.3681,5.3787,5.3875,5.3927,5.3991,5.4081,5.4206,5.4168,5.4217,5.4214,5.429,5.4445,5.4238,5.424,5.4276,5.4634,5.4666,5.4697,5.4427,5.4432,5.4436,5.4629,0,5.3563,5.3749,5.3751,5.3922,5.401,5.3978,5.4071,5.4125,5.4147,5.4225,5.4248,5.4337,5.4279,5.431,5.4383,5.4411,5.4517,5.4397,5.4512,5.4516,5.4498,5.473,5.4764,5.4944,5.4654,5.4659,5.4662,0,5.38,5.3872,5.4053,5.4113,5.415,5.4233,5.4315,5.439,5.4452,5.4462,5.4519,5.4505,5.4615,5.4533,5.4686,5.4604,5.4651,5.4672,5.4679,5.469,5.4598,5.4749,5.5001,5.5029,5.4701,5.4698,5.4695,0,5.3949,5.4091,5.4218,5.4253,5.4326,5.4386,5.4419,5.4476,5.4529,5.4601,5.4636,5.472,5.4766,5.4832,5.4842,5.4781,5.4996,5.4914,5.5009,5.5009,5.5056,5.5053,5.5321,5.5085,5.5085,5.5084,5.5083,0,5.4154,5.4266,5.4286,5.4364,5.449,5.4491,5.4615,5.4644,5.4695,5.4779,5.4756,5.4836,5.4843,5.4926,5.4934,5.506,5.5081,5.5093,5.5094,5.5096,5.5095,5.5127,5.5115,5.5091,5.509,5.5088,5.5087,0,5.4341,5.4359,5.4496,5.4554,5.4571,5.4661,5.4712,5.4787,5.4806,5.4913,5.4939,5.4969,5.5065,5.5081,5.5194,5.52,5.5351,5.5339,5.5331,5.5329,5.5423,5.5414,5.5722,5.5763,5.55,5.5502,5.5504,0,5.4471,5.4557,5.4625,5.4679,5.4716,5.4804,5.4859,5.4864,5.4922,5.5,5.5067,5.516,5.5236,5.5391,5.5424,5.5511,5.5501,5.5603,5.5514,5.5513,5.5504,5.5499,5.5509,5.562,5.5623,5.5625,5.5627,0,5.4699,5.4704,5.4784,5.4868,5.4934,5.5,5.5063,5.5109,5.5123,5.519,5.5288,5.5346,5.5462,5.5556,5.5643,5.5678,5.5656,5.5655,5.5682,5.5684,5.5677,5.5684,5.5378,5.5648,5.5646,5.5644,5.5643,5.5642,5.4863,5.4938,5.4998,5.5089,5.5136,5.5196,5.527,5.5299,5.5381,5.5476,5.5474,5.5582,5.5644,5.5758,5.5799,5.5884,5.5852,5.589,5.59,5.5909,5.5919,5.5663,5.59,5.5899,5.5899,5.5898,5.5898,0,5.5091,5.5129,5.5212,5.53,5.5372,5.5344,5.5413,5.5475,5.557,5.5629,5.5704,5.5818,5.5909,5.595,5.604,5.6101,5.6093,5.6125,5.6121,5.613,5.5942,5.5911,5.613,5.613,5.613,5.613,5.6129,5.6129,5.5219,5.5345,5.5358,5.5509,5.5545,5.5651,5.5693,5.5748,5.5796,5.5924,5.6,5.6025,5.6078,5.6172,5.6255,5.6265,5.63,5.6337,5.6342,5.6166,5.6143,5.612,5.6091,5.6344,5.6344,5.6522,5.6524,5.6525]},{"header":{"parameterUnit":"m.s-1","parameterCategory":1,"la1":30.2991,"la2":30.254,"lo1":-89.0895,"lo2":-89.0444,"dy":0.0017,"dx":0.0017,"nx":28,"ny":28,"refTime":"2025-03-04T09:00:00:Z","depth":0,"parameterNumber":3,"parameterNumberName":"V-component_of_WINDS"},"data":[0,0,0,0,0,0,0,0,0,0,0,0,0,0,0,0,0,0,0,0,0,0,0,0,0,0,0,0,0,0,0,0,0,0,0,0,0,0,0,0,0,0,0,0,0,0,0,0,0,0,0,0,0,0,0,0,0,0,-5.2759,-5.2762,0,-5.2976,-5.2979,-5.2981,-5.296,-5.2957,-5.2953,-5.295,-5.3174,-5.3183,-5.3192,0,0,0,0,0,0,0,0,0,0,0,0,0,-5.233,-5.2338,-5.2759,-5.2762,-5.2765,-5.2976,-5.2979,-5.2982,-5.2961,-5.2957,-5.2953,-5.2949,-5.3171,-5.3182,-5.3193,0,0,0,0,0,0,0,0,0,0,0,0,0,-5.2528,-5.234,-5.2759,-5.2779,-5.2784,-5.2975,-5.2979,-5.2983,-5.2962,-5.2957,-5.2951,-5.2947,-5.3168,-5.3181,-5.3195,-5.3381,0,0,-5.3236,-5.3242,0,0,0,0,0,0,0,0,-5.2517,-5.2544,-5.2774,-5.2778,-5.2783,-5.2936,-5.291,-5.3116,-5.2963,-5.2894,-5.295,-5.2944,-5.3099,-5.3118,-5.317,-5.3391,-5.3401,-5.3238,-5.3246,-5.3252,-5.3256,0,0,0,0,0,0,0,-5.2503,-5.2535,-5.2845,-5.2777,-5.2783,-5.2779,-5.2802,-5.2949,-5.3023,-5.29,-5.2899,-5.2925,-5.3101,-5.3157,-5.3175,-5.3404,-5.3237,-5.3249,-5.3258,-5.3263,-5.3791,-5.3796,0,0,0,0,0,0,-5.2484,-5.2523,-5.2838,-5.2852,-5.2635,-5.2791,-5.2816,-5.2892,-5.3021,-5.3036,-5.2929,-5.2923,-5.3136,-5.3159,-5.3183,-5.3411,-5.3252,-5.3265,-5.3272,-5.3785,-5.3792,-5.3798,0,0,0,0,0,0,-5.2475,-5.2513,-5.283,-5.2687,-5.2727,-5.2804,-5.2889,-5.2899,-5.2955,-5.3043,-5.3056,-5.2972,-5.3133,-5.3164,-5.3332,-5.3419,-5.3271,-5.3283,-5.3778,-5.3787,-5.3795,-5.3867,0,0,0,0,0,0,-5.2463,-5.2509,-5.258,-5.2689,-5.2735,-5.2974,-5.2894,-5.2907,-5.2979,-5.2973,-5.3087,-5.3101,-5.3132,-5.3312,-5.3346,-5.3435,-5.3294,-5.3771,-5.3782,-5.3792,-5.3858,-5.3877,-5.3894,0,0,0,0,0,-5.2448,-5.2592,-5.2584,-5.2622,-5.2825,-5.2979,-5.3006,-5.3037,-5.2986,-5.3058,-5.3115,-5.3098,-5.3403,-5.3329,-5.3367,-5.3462,-5.3766,-5.3779,-5.3792,-5.3849,-5.3874,-5.3894,0,0,0,0,0,0,-5.2491,-5.2606,-5.2599,-5.2782,-5.2871,-5.2975,-5.3067,-5.3061,-5.3167,-5.3157,-5.3192,-5.3218,-5.3388,-5.3441,-5.3357,-5.3649,-5.3578,-5.3599,-5.3609,-5.3632,-5.365,-5.3635,-5.3305,0,0,0,0,0,-5.2522,-5.2636,-5.2731,-5.2884,-5.2929,-5.2991,-5.3059,-5.3075,-5.3169,-5.3207,-5.3276,-5.3368,-5.3485,-5.3561,-5.3674,-5.3865,-5.3891,-5.3949,-5.3967,-5.3982,-5.4,-5.4108,-5.4135,-5.3841,-5.3841,-5.3841,0,0,-5.2587,-5.2664,-5.2734,-5.2895,-5.2965,-5.3085,-5.3022,-5.3151,-5.324,-5.3227,-5.339,-5.3444,-5.3549,-5.373,-5.3813,-5.378,-5.4087,-5.3998,-5.4009,-5.402,-5.4124,-5.4152,-5.4176,-5.385,-5.3849,-5.3847,0,0,-5.2767,-5.2836,-5.2971,-5.3044,-5.3152,-5.3192,-5.3225,-5.3331,-5.3366,-5.353,-5.3523,-5.363,-5.383,-5.3907,-5.3972,-5.4182,-5.4171,-5.4218,-5.4314,-5.4418,-5.4442,-5.4462,-5.4539,-5.4566,-5.4235,-5.4236,-5.4236,0,-5.2834,-5.3013,-5.3042,-5.3173,-5.3244,-5.3237,-5.3376,-5.3445,-5.3584,-5.3635,-5.3595,-5.3848,-5.3918,-5.4118,-5.4169,-5.4221,-5.4261,-5.4205,-5.4436,-5.4457,-5.4477,-5.4551,-5.4579,-5.4241,-5.424,-5.424,-5.4239,0,-5.3091,-5.3216,-5.3312,-5.3447,-5.353,-5.3664,-5.3715,-5.3795,-5.3805,-5.385,-5.4018,-5.4102,-5.4233,-5.4281,-5.4292,-5.4484,-5.446,-5.4428,-5.4356,-5.4509,-5.4579,-5.4608,-5.4248,-5.4246,-5.4245,-5.4243,0,0,-5.3305,-5.3455,-5.349,-5.3552,-5.3671,-5.3768,-5.3903,-5.403,-5.4099,-5.4196,-5.431,-5.4481,-5.4452,-5.4526,-5.4545,-5.4637,-5.4801,-5.4594,-5.4597,-5.4631,-5.502,-5.5044,-5.5077,-5.4794,-5.4799,-5.4804,-5.5012,0,-5.3498,-5.3735,-5.3766,-5.3977,-5.4093,-5.4088,-5.4206,-5.4293,-5.4338,-5.4445,-5.4495,-5.4617,-5.4569,-5.4614,-5.4704,-5.4761,-5.488,-5.4747,-5.4903,-5.4908,-5.4878,-5.5113,-5.5139,-5.5331,-5.5039,-5.5044,-5.5047,0,-5.3754,-5.3859,-5.4081,-5.4186,-5.4236,-5.4341,-5.4461,-5.4562,-5.4661,-5.4688,-5.4771,-5.4779,-5.492,-5.4842,-5.5038,-5.4947,-5.5012,-5.5051,-5.5059,-5.5076,-5.4988,-5.5138,-5.5393,-5.5423,-5.509,-5.5087,-5.5084,0,-5.389,-5.4086,-5.4245,-5.4297,-5.4423,-5.4498,-5.4554,-5.4647,-5.4722,-5.4828,-5.4877,-5.4997,-5.5064,-5.5157,-5.5198,-5.5137,-5.5393,-5.5317,-5.5421,-5.542,-5.5476,-5.5472,-5.5747,-5.5515,-5.5515,-5.5514,-5.5513,0,-5.4104,-5.424,-5.4307,-5.4405,-5.4559,-5.4594,-5.4746,-5.4799,-5.4883,-5.4992,-5.4995,-5.5098,-5.5145,-5.5256,-5.5289,-5.5448,-5.5477,-5.5504,-5.5512,-5.5505,-5.5502,-5.555,-5.5538,-5.5522,-5.552,-5.5519,-5.5517,0,-5.4281,-5.4332,-5.4505,-5.461,-5.464,-5.4749,-5.4839,-5.4935,-5.498,-5.5119,-5.5153,-5.5224,-5.5355,-5.5405,-5.5564,-5.5587,-5.577,-5.5766,-5.5737,-5.5739,-5.584,-5.5831,-5.6157,-5.6203,-5.5939,-5.5941,-5.5943,0,-5.4415,-5.452,-5.4637,-5.471,-5.4769,-5.4886,-5.4963,-5.5002,-5.5082,-5.5204,-5.5286,-5.5415,-5.5522,-5.5731,-5.5798,-5.592,-5.592,-5.6026,-5.5939,-5.5929,-5.5924,-5.5918,-5.593,-5.6042,-5.6045,-5.6047,-5.6049,0,-5.4648,-5.4668,-5.4777,-5.4897,-5.4989,-5.5085,-5.5179,-5.5239,-5.5292,-5.5382,-5.5516,-5.5598,-5.5761,-5.5891,-5.6017,-5.6076,-5.6073,-5.6076,-5.6107,-5.6102,-5.6082,-5.6096,-5.5783,-5.6069,-5.6067,-5.6065,-5.6064,-5.6063,-5.4809,-5.4903,-5.5,-5.5123,-5.5198,-5.5286,-5.5381,-5.5439,-5.555,-5.5686,-5.5702,-5.5846,-5.5944,-5.6113,-5.6178,-5.6292,-5.6264,-5.6308,-5.632,-5.633,-5.6339,-5.6062,-5.6315,-5.6314,-5.6314,-5.6313,-5.6313,0,-5.5044,-5.5106,-5.5219,-5.535,-5.5447,-5.5434,-5.5538,-5.5621,-5.5747,-5.5838,-5.5943,-5.6097,-5.6224,-5.6301,-5.6428,-5.6505,-5.6507,-5.6537,-5.6533,-5.6547,-5.6355,-5.6317,-5.6534,-5.6534,-5.6534,-5.6534,-5.6534,-5.6534,-5.5177,-5.5336,-5.5368,-5.5565,-5.5626,-5.5767,-5.5828,-5.5909,-5.5983,-5.6155,-5.626,-5.6309,-5.6396,-5.6529,-5.6646,-5.6665,-5.6713,-5.6746,-5.6764,-5.6583,-5.656,-5.6539,-5.6503,-5.6756,-5.6756,-5.6947,-5.6948,-5.695]}]]